TimeCDT,TemperatureF,Dew PointF,Humidity,Sea Level PressureIn,VisibilityMPH,Wind Direction,Wind SpeedMPH,Gust SpeedMPH,PrecipitationIn,Events,Conditions,WindDirDegrees,DateUTC
12:56 AM,66.0,64.0,93,30.11,10.0,Calm,Calm,-,N/A,,Clear,0,2012-10-05 05:56:00
1:56 AM,66.0,64.0,93,30.11,10.0,Calm,Calm,-,N/A,,Clear,0,2012-10-05 06:56:00
2:56 AM,66.9,64.0,90,30.10,10.0,SSE,3.5,-,N/A,,Clear,150,2012-10-05 07:56:00
3:56 AM,66.0,63.0,90,30.10,10.0,SSE,3.5,-,N/A,,Clear,150,2012-10-05 08:56:00
4:56 AM,66.0,63.0,90,30.09,9.0,South,3.5,-,N/A,,Clear,170,2012-10-05 09:56:00
5:56 AM,64.9,62.1,90,30.09,10.0,SSE,5.8,-,N/A,,Clear,160,2012-10-05 10:56:00
6:56 AM,64.9,62.1,90,30.11,10.0,Calm,Calm,-,N/A,,Partly Cloudy,0,2012-10-05 11:56:00
7:53 AM,64.4,62.6,94,30.11,10.0,Calm,Calm,-,N/A,,Scattered Clouds,0,2012-10-05 12:53:00
7:56 AM,64.9,63.0,93,30.11,10.0,Calm,Calm,-,N/A,,Scattered Clouds,0,2012-10-05 12:56:00
8:56 AM,70.0,64.9,84,30.12,10.0,SSW,4.6,-,N/A,,Partly Cloudy,200,2012-10-05 13:56:00
9:56 AM,75.0,66.0,73,30.12,10.0,SSW,8.1,-,N/A,,Scattered Clouds,210,2012-10-05 14:56:00
10:56 AM,79.0,64.9,62,30.10,10.0,South,12.7,-,N/A,,Scattered Clouds,180,2012-10-05 15:56:00
11:56 AM,81.0,63.0,54,30.08,10.0,SSW,13.8,25.3,N/A,,Scattered Clouds,200,2012-10-05 16:56:00
12:56 PM,84.0,64.0,51,30.06,10.0,SSW,12.7,-,N/A,,Partly Cloudy,200,2012-10-05 17:56:00
1:56 PM,84.9,64.9,51,30.03,10.0,SSW,11.5,19.6,N/A,,Partly Cloudy,210,2012-10-05 18:56:00
2:56 PM,84.9,64.0,49,30.00,10.0,SW,6.9,-,N/A,,Scattered Clouds,230,2012-10-05 19:56:00
3:56 PM,84.9,63.0,48,29.99,10.0,SW,9.2,-,N/A,,Partly Cloudy,230,2012-10-05 20:56:00
4:56 PM,84.0,64.0,51,29.97,10.0,WSW,6.9,-,N/A,,Partly Cloudy,240,2012-10-05 21:56:00
5:56 PM,82.9,64.9,54,29.96,10.0,SSW,5.8,-,N/A,,Partly Cloudy,210,2012-10-05 22:56:00
6:56 PM,79.0,66.0,64,29.96,10.0,South,5.8,-,N/A,,Partly Cloudy,190,2012-10-05 23:56:00
7:56 PM,73.9,66.0,76,29.97,10.0,Calm,Calm,-,N/A,,Partly Cloudy,0,2012-10-06 00:56:00
8:56 PM,73.0,66.9,81,29.98,10.0,South,3.5,-,N/A,,Partly Cloudy,180,2012-10-06 01:56:00
9:56 PM,73.9,66.9,79,29.99,10.0,South,5.8,-,N/A,,Partly Cloudy,190,2012-10-06 02:56:00
10:56 PM,73.9,66.9,79,30.01,10.0,West,3.5,-,N/A,,Partly Cloudy,260,2012-10-06 03:56:00
11:56 PM,73.0,66.0,79,30.01,10.0,NNW,6.9,-,N/A,,Mostly Cloudy,340,2012-10-06 04:56:00